FW2982 Weather Reports


Display with metric or nautical units.
time (UTC)temp
F
wind
direction
speed
MPH
gust
MPH
rain 1hr
in
rain 24hr
in
rain mn
in
humidity
%
barometer
mb
20260903222033 88 245 1.0 5.0 0.00 0.00 0.00 74 1011.3
20260903221531 88 213 0.0 2.0 0.00 0.00 0.00 74 1011.3
20260903221305 88 230 0.0 0.0 0.00 0.00 0.00 75 1011.3
20260903220518 87 230 0.0 4.0 0.00 0.00 0.00 75 1011.4
20260903220012 88 228 0.0 4.0 0.00 0.00 0.00 74 1011.3
20260903215511 88 344 1.0 3.0 0.00 0.00 0.00 73 1011.4
20260903215031 89 252 1.0 5.0 0.00 0.00 0.00 71 1011.4
20260903215023 89 224 1.0 3.0 0.00 0.00 0.00 72 1011.4
20260903214012 89 0 2.0 5.0 0.00 0.00 0.00 70 1011.3
20260903213511 89 312 0.0 3.0 0.00 0.00 0.00 72 1011.4
20260903213012 89 341 0.0 3.0 0.00 0.00 0.00 72 1011.4
20260903212507 90 303 1.0 3.0 0.00 0.00 0.00 68 1011.3
20260903212030 90 257 1.0 5.0 0.00 0.00 0.00 69 1011.5
20260903212023 90 255 1.0 5.0 0.00 0.00 0.00 67 1011.4
20260903211007 90 299 0.0 3.0 0.00 0.00 0.00 67 1011.5
20260903210505 90 303 1.0 4.0 0.00 0.00 0.00 68 1011.5
20260903210005 90 0 0.0 4.0 0.00 0.00 0.00 68 1011.5
20260903205749 91 310 2.0 3.0 0.00 0.00 0.00 66 1011.5
20260903205005 91 276 1.0 2.0 0.00 0.00 0.00 65 1011.6
20260903204505 91 288 0.0 6.0 0.00 0.00 0.00 65 1011.6
20260903204006 91 285 1.0 6.0 0.00 0.00 0.00 65 1011.7
20260903203505 91 306 1.0 4.0 0.00 0.00 0.00 66 1011.8
20260903203004 91 276 2.0 4.0 0.00 0.00 0.00 66 1011.8
20260903202504 91 251 1.0 3.0 0.00 0.00 0.00 67 1011.8
20260903202005 91 334 1.0 5.0 0.00 0.00 0.00 67 1011.8
20260903201504 91 268 3.0 5.0 0.00 0.00 0.00 67 1011.9
20260903201004 91 240 1.0 4.0 0.00 0.00 0.00 69 1012.0
20260903200505 91 230 1.0 3.0 0.00 0.00 0.00 67 1012.1
20260903200243 91 144 1.0 4.0 0.00 0.00 0.00 67 1012.1
20260903195503 91 204 2.0 4.0 0.00 0.00 0.00 66 1012.3
20260903195244 91 295 1.0 3.0 0.00 0.00 0.00 66 1012.4
20260903194504 92 286 1.0 4.0 0.00 0.00 0.00 66 1012.6
20260903194004 91 209 2.0 4.0 0.00 0.00 0.00 68 1012.6
20260903193503 91 189 1.0 4.0 0.00 0.00 0.00 68 1012.6
20260903193003 91 275 1.0 3.0 0.00 0.00 0.00 69 1012.7
20260903192744 90 274 1.0 3.0 0.00 0.00 0.00 69 1012.7
20260903192006 91 347 0.0 4.0 0.00 0.00 0.00 65 1013.0
20260903191502 91 340 1.0 4.0 0.00 0.00 0.00 67 1013.1
20260903191003 90 0 1.0 4.0 0.00 0.00 0.00 70 1013.2
20260903190504 89 351 2.0 4.0 0.00 0.00 0.00 72 1013.2
20260903185931 89 299 0.0 3.0 0.00 0.00 0.00 72 1013.4
20260903185431 88 190 1.0 3.0 0.00 0.00 0.00 72 1013.4
20260903184932 87 281 0.0 0.0 0.00 0.01 0.00 75 1013.5
20260903184710 87 281 0.0 0.0 0.00 0.01 0.00 74 1013.3
20260903183932 86 281 0.0 0.0 0.00 0.02 0.00 75 1013.5
20260903183431 86 283 0.0 0.0 0.00 0.03 0.00 77 1013.5
20260903182930 86 283 0.0 1.0 0.00 0.05 0.00 76 1013.5
20260903182520 87 275 1.0 3.0 0.00 0.13 0.00 74 1013.5
20260903182505 86 283 0.0 2.0 0.00 0.07 0.00 76 1013.4
20260903182231 86 283 0.0 3.0 0.00 0.09 0.00 74 1013.5
20260903180932 88 347 1.0 2.0 0.00 0.18 0.00 73 1013.8
20260903180711 88 285 1.0 2.0 0.00 0.18 0.00 71 1013.8
20260903175931 87 357 0.0 2.0 0.00 0.18 0.00 73 1013.9
20260903175431 87 357 0.0 2.0 0.00 0.18 0.00 71 1014.0
20260903174932 88 288 1.0 3.0 0.00 0.18 0.00 72 1013.9
20260903174431 87 290 1.0 3.0 0.00 0.18 0.00 70 1013.7
20260903173931 87 209 2.0 3.0 0.00 0.18 0.00 71 1013.8
20260903173432 87 209 0.0 3.0 0.00 0.18 0.00 73 1014.1
20260903173214 87 189 1.0 3.0 0.00 0.18 0.00 72 1014.4
20260903172712 87 275 0.0 2.0 0.00 0.18 0.00 72 1014.5
20260903171931 87 323 1.0 2.0 0.00 0.18 0.00 72 1014.7
20260903171432 87 87 0.0 2.0 0.00 0.18 0.00 72 1014.8
20260903170932 87 87 0.0 2.0 0.00 0.18 0.00 73 1014.9
20260903170433 86 89 0.0 3.0 0.00 0.18 0.00 73 1014.9
20260903170213 87 78 2.0 3.0 0.00 0.18 0.00 70 1015.1
20260903165431 87 305 0.0 3.0 0.00 0.18 0.00 74 1015.0
20260903164931 86 200 0.0 3.0 0.00 0.18 0.00 73 1015.1
20260903164433 86 165 0.0 4.0 0.00 0.18 0.00 73 1015.2
20260903163933 85 179 1.0 5.0 0.00 0.18 0.00 74 1015.4
20260903163431 85 59 2.0 5.0 0.00 0.18 0.00 76 1015.4
20260903162930 84 54 1.0 5.0 0.00 0.18 0.00 77 1015.4
20260903162711 84 58 1.0 5.0 0.00 0.18 0.00 77 1015.5
20260903161921 85 37 1.0 5.0 0.00 0.18 0.00 78 1015.7
20260903161706 84 265 2.0 3.0 0.00 0.18 0.00 79 1015.7
20260903160919 83 54 1.0 3.0 0.00 0.18 0.00 83 1015.6
20260903160415 82 299 0.0 2.0 0.00 0.18 0.00 83 1015.8
20260903160155 83 302 0.0 2.0 0.00 0.18 0.00 85 1016.0
20260903155652 82 303 1.0 5.0 0.00 0.18 0.00 85 1016.1
20260903155217 81 93 1.0 2.0 0.00 0.18 0.00 86 1016.4
20260903155212 81 307 2.0 5.0 0.00 0.18 0.00 85 1016.2
20260903153913 81 327 0.0 1.0 0.00 0.18 0.00 85 1016.5
20260903153410 82 327 0.0 3.0 0.00 0.18 0.00 84 1016.4
20260903152911 82 327 1.0 3.0 0.00 0.18 0.00 84 1015.7
20260903152412 81 314 0.0 2.0 0.00 0.18 0.00 85 1015.6
20260903151912 81 293 1.0 2.0 0.00 0.18 0.00 85 1015.7
20260903151650 81 238 0.0 2.0 0.00 0.18 0.00 85 1015.7
20260903150909 81 238 1.0 5.0 0.00 0.18 0.00 84 1015.7
20260903150652 81 240 1.0 5.0 0.00 0.18 0.00 86 1015.7
20260903145909 81 336 0.0 3.0 0.00 0.18 0.00 86 1015.6
20260903145407 81 292 0.0 2.0 0.00 0.18 0.00 86 1015.5
20260903144909 80 300 0.0 2.0 0.00 0.18 0.00 87 1015.4
20260903144408 81 298 0.0 2.0 0.00 0.18 0.00 87 1015.5
20260903143907 81 299 0.0 3.0 0.00 0.18 0.00 86 1015.5
20260903143403 81 299 1.0 3.0 0.00 0.18 0.00 88 1015.5
20260903142904 80 6 0.0 2.0 0.00 0.18 0.00 89 1015.5
20260903142404 80 337 0.0 2.0 0.00 0.18 0.00 90 1015.5
20260903141903 79 337 0.0 2.0 0.00 0.18 0.00 90 1015.3
20260903141404 80 338 0.0 2.0 0.00 0.18 0.00 92 1015.4
20260903140903 77 102 1.0 2.0 0.00 0.18 0.00 93 1015.2
20260903140403 78 228 0.0 2.0 0.00 0.18 0.00 95 1015.0
20260903135906 77 214 0.0 2.0 0.00 0.18 0.00 96 1015.1
20260903135641 77 214 0.0 2.0 0.00 0.18 0.00 97 1015.2
20260903134903 75 214 0.0 2.0 0.00 0.18 0.00 97 1015.1
20260903134645 74 190 0.0 2.0 0.00 0.18 0.00 97 1015.0
20260903133902 74 190 0.0 2.0 0.00 0.18 0.00 97 1014.9
20260903133402 74 190 1.0 3.0 0.00 0.18 0.00 97 1015.2
20260903132904 74 189 1.0 4.0 0.00 0.18 0.00 97 1015.1
20260903132402 74 127 0.0 4.0 0.00 0.18 0.00 97 1015.4
20260903131902 74 41 1.0 3.0 0.00 0.18 0.00 97 1015.3
20260903131404 74 210 0.0 3.0 0.00 0.18 0.00 97 1015.5
20260903130902 74 185 1.0 3.0 0.00 0.18 0.00 97 1015.6
20260903130404 74 76 0.0 1.0 0.00 0.18 0.00 97 1015.8
20260903125902 74 76 0.0 0.0 0.00 0.18 0.00 97 1016.0
20260903125403 74 76 0.0 1.0 0.00 0.18 0.00 97 1016.0
20260903124902 74 76 0.0 2.0 0.00 0.18 0.00 98 1016.2
20260903124403 73 75 0.0 2.0 0.00 0.18 0.00 97 1016.1
20260903123902 73 75 0.0 3.0 0.00 0.18 0.00 97 1016.2
20260903123401 73 75 1.0 3.0 0.00 0.18 0.00 97 1016.3
20260903122903 73 65 0.0 2.0 0.00 0.18 0.00 97 1016.3
20260903122640 73 65 0.0 3.0 0.00 0.18 0.00 97 1016.3
20260903121902 72 65 0.0 3.0 0.00 0.18 0.00 97 1016.4
20260903121641 72 68 0.0 3.0 0.00 0.18 0.00 97 1016.4
20260903120903 72 35 1.0 4.0 0.00 0.18 0.00 97 1016.4
20260903120403 72 59 1.0 4.0 0.00 0.18 0.00 97 1016.6
20260903115905 72 52 1.0 3.0 0.00 0.18 0.00 97 1016.6
20260903115403 72 52 0.0 4.0 0.00 0.18 0.00 97 1016.5
20260903114903 72 52 1.0 4.0 0.00 0.18 0.00 97 1016.5
20260903114404 72 44 1.0 3.0 0.00 0.18 0.00 97 1016.5
20260903113902 72 298 0.0 3.0 0.00 0.18 0.00 97 1016.6
20260903113403 72 235 1.0 4.0 0.00 0.18 0.00 97 1016.5
20260903112903 72 54 1.0 4.0 0.00 0.18 0.00 97 1016.4
20260903112640 72 63 1.0 4.0 0.00 0.18 0.00 97 1016.4
20260903111902 72 58 0.0 4.0 0.00 0.18 0.00 97 1016.2
20260903111403 72 66 0.0 0.0 0.00 0.18 0.00 97 1016.3
20260903110902 72 66 0.0 0.0 0.00 0.18 0.00 97 1015.7
20260903110401 72 66 0.0 0.0 0.00 0.18 0.00 97 1015.5
20260903105918 72 66 0.0 0.0 0.00 0.18 0.00 97 1015.5
20260903105911 72 66 0.0 0.0 0.00 0.18 0.00 97 1015.5
20260903104856 72 66 0.0 0.0 0.00 0.18 0.00 97 1015.4
20260903104635 71 66 0.0 0.0 0.00 0.18 0.00 97 1015.4
20260903103853 71 66 0.0 0.0 0.00 0.18 0.00 97 1015.3
20260903103631 71 66 0.0 0.0 0.00 0.18 0.00 97 1015.1
20260903102850 71 66 0.0 0.0 0.00 0.18 0.00 97 1015.0
20260903102349 71 66 0.0 0.0 0.00 0.18 0.00 97 1014.6
20260903101847 71 66 0.0 0.0 0.00 0.18 0.00 97 1014.6
20260903101409 71 66 0.0 0.0 0.00 0.18 0.00 97 1014.5
20260903101401 71 66 0.0 0.0 0.00 0.18 0.00 97 1014.6
20260903100344 71 66 0.0 0.0 0.00 0.18 0.00 97 1014.4
20260903095841 71 66 0.0 0.0 0.00 0.18 0.00 97 1014.4
20260903095342 71 66 0.0 0.0 0.00 0.18 0.00 97 1014.5
20260903094837 71 66 0.0 0.0 0.00 0.18 0.00 97 1014.5
20260903094335 71 66 0.0 0.0 0.00 0.18 0.00 97 1014.6
20260903093835 71 66 0.0 0.0 0.00 0.18 0.00 97 1014.6
20260903093331 71 66 0.0 0.0 0.00 0.18 0.00 97 1014.6
20260903092832 71 66 0.0 0.0 0.00 0.18 0.00 97 1014.7
20260903092331 70 66 0.0 0.0 0.00 0.18 0.00 97 1014.8
20260903091830 71 66 0.0 0.0 0.00 0.18 0.00 97 1014.7
20260903091330 71 66 0.0 0.0 0.00 0.18 0.00 97 1014.7
20260903090831 71 66 0.0 0.0 0.00 0.18 0.00 97 1014.7
20260903090332 71 66 0.0 0.0 0.00 0.18 0.00 97 1014.7
20260903085827 71 66 0.0 0.0 0.00 0.18 0.00 97 1014.6
20260903085328 70 66 0.0 0.0 0.00 0.18 0.00 97 1014.5
20260903084822 70 66 0.0 0.0 0.00 0.18 0.00 97 1014.6
20260903084322 71 66 0.0 0.0 0.00 0.18 0.00 97 1014.5
20260903084104 71 66 0.0 0.0 0.00 0.18 0.00 97 1014.4
20260903083323 71 66 0.0 0.0 0.00 0.18 0.00 97 1014.4
20260903082817 71 66 0.0 0.0 0.00 0.18 0.00 97 1014.3
20260903082316 71 66 0.0 0.0 0.00 0.18 0.00 97 1014.3
20260903081817 71 66 0.0 0.0 0.00 0.18 0.00 97 1014.4
20260903081316 71 66 0.0 0.0 0.00 0.18 0.00 97 1014.6
20260903081048 71 66 0.0 0.0 0.00 0.18 0.00 97 1014.6
20260903080307 71 66 0.0 1.0 0.00 0.18 0.00 97 1014.5
20260903075808 71 66 0.0 1.0 0.00 0.18 0.00 97 1014.6
20260903075308 71 66 0.0 0.0 0.00 0.18 0.00 97 1014.6
20260903074804 71 66 0.0 0.0 0.00 0.18 0.00 97 1014.6
20260903074303 71 66 0.0 0.0 0.00 0.18 0.00 97 1014.6
20260903073803 71 66 0.0 0.0 0.00 0.18 0.00 97 1014.5
20260903073304 71 66 0.0 0.0 0.00 0.18 0.00 97 1014.5
20260903072805 71 66 0.0 0.0 0.00 0.18 0.00 97 1014.4
20260903072306 71 66 0.0 2.0 0.00 0.18 0.00 97 1014.5
20260903072041 71 66 0.0 2.0 0.00 0.18 0.00 97 1014.4
20260903071303 71 66 0.0 1.0 0.00 0.18 0.00 97 1014.5
20260903070804 71 66 0.0 3.0 0.00 0.18 0.00 97 1014.3
20260903070304 71 66 0.0 3.0 0.00 0.18 0.00 97 1014.3
20260903065802 71 144 0.0 2.0 0.00 0.18 0.00 97 1014.2
20260903065305 71 144 0.0 0.0 0.00 0.18 0.00 97 1014.2
20260903064802 71 144 0.0 0.0 0.00 0.18 0.00 97 1014.3
20260903064301 71 144 0.0 0.0 0.00 0.18 0.00 97 1014.4
20260903063828 71 144 0.0 2.0 0.00 0.18 0.00 97 1014.6
20260903063818 71 144 0.0 1.0 0.00 0.18 0.00 97 1014.5
20260903062803 71 144 0.0 2.0 0.00 0.18 0.00 97 1014.4
20260903062542 71 52 0.0 1.0 0.00 0.18 0.00 97 1014.4
20260903061802 71 52 0.0 2.0 0.00 0.18 0.00 97 1014.3
20260903061302 71 52 0.0 2.0 0.00 0.18 0.00 97 1014.3
20260903060802 71 51 0.0 2.0 0.00 0.18 0.00 97 1014.5
20260903060302 71 51 1.0 2.0 0.00 0.18 0.00 97 1014.6
20260903055803 71 51 0.0 1.0 0.00 0.18 0.00 97 1014.5
20260903055306 71 97 0.0 1.0 0.00 0.18 0.00 97 1014.5
20260903054802 71 73 0.0 0.0 0.00 0.18 0.00 97 1014.6
20260903054302 71 73 0.0 0.0 0.00 0.18 0.00 96 1014.7
20260903053802 71 73 0.0 0.0 0.00 0.18 0.00 96 1014.8
20260903053326 71 73 0.0 0.0 0.00 0.18 0.00 96 1014.8
20260903053318 71 73 0.0 0.0 0.00 0.18 0.00 96 1014.8
20260903052541 71 73 0.0 0.0 0.00 0.18 0.00 96 1014.8
20260903051803 71 73 0.0 0.0 0.00 0.18 0.00 96 1014.8
20260903051259 71 73 0.0 0.0 0.00 0.18 0.00 96 1014.9
20260903050800 71 73 0.0 0.0 0.00 0.18 0.00 96 1015.0
20260903050300 72 73 0.0 0.0 0.00 0.18 0.00 96 1015.1
20260903045749 72 73 0.0 0.0 0.00 0.18 0.00 96 1015.0
20260903045251 72 73 0.0 0.0 0.00 0.18 0.00 96 1015.1
20260903044747 72 73 0.0 0.0 0.00 0.18 0.00 96 1015.1
20260903044245 72 73 0.0 0.0 0.00 0.18 0.00 96 1015.2
20260903043746 72 73 0.0 0.0 0.00 0.18 0.00 96 1015.2
20260903043643 72 73 0.0 0.0 0.00 0.18 0.00 96 1015.3
20260903043357 72 73 0.0 0.0 0.00 0.18 0.00 96 1015.2
20260903043338 72 73 0.0 0.0 0.00 0.18 0.00 96 1015.2
20260903043109 72 73 0.0 0.0 0.00 0.18 0.00 96 1015.3
20260903041243 72 73 0.0 0.0 0.00 0.18 0.00 96 1015.4
20260903041024 72 73 0.0 0.0 0.00 0.18 0.00 96 1015.5
20260903040243 72 73 0.0 0.0 0.00 0.18 0.00 96 1015.6
20260903035743 72 73 0.0 0.0 0.00 0.18 0.18 96 1015.5
20260903035243 72 73 0.0 0.0 0.00 0.18 0.18 96 1015.4
20260903034743 72 73 0.0 0.0 0.00 0.18 0.18 96 1015.5
20260903034243 72 73 0.0 0.0 0.00 0.18 0.18 96 1015.3
20260903033742 72 73 0.0 0.0 0.00 0.18 0.18 96 1015.2
20260903033244 72 73 0.0 0.0 0.00 0.18 0.18 96 1015.3
20260903032741 72 73 0.0 0.0 0.00 0.18 0.18 96 1015.4
20260903032242 72 73 0.0 0.0 0.00 0.18 0.18 96 1015.5
20260903031806 72 73 0.0 0.0 0.00 0.18 0.18 96 1015.6
20260903031757 72 73 0.0 0.0 0.00 0.18 0.18 96 1015.7
20260903031021 72 73 0.0 0.0 0.00 0.18 0.18 96 1015.3
20260903030242 72 73 0.0 0.0 0.00 0.18 0.18 96 1015.5
20260903025742 72 73 0.0 0.0 0.00 0.18 0.18 96 1015.3
20260903025241 72 73 0.0 0.0 0.00 0.18 0.18 96 1015.5
20260903024742 72 73 0.0 0.0 0.00 0.18 0.18 96 1015.4
20260903024243 72 73 0.0 0.0 0.00 0.18 0.18 96 1015.4
20260903023741 72 73 0.0 0.0 0.00 0.18 0.18 96 1015.3
20260903023241 72 73 0.0 1.0 0.00 0.18 0.18 96 1015.3
20260903023019 72 73 1.0 2.0 0.00 0.18 0.18 96 1015.2
20260903022543 72 73 2.0 2.0 0.00 0.18 0.18 96 1015.1
20260903022539 72 73 1.0 2.0 0.00 0.18 0.18 96 1015.1
20260903021241 72 73 0.0 2.0 0.00 0.18 0.18 96 1014.9
20260903020742 72 73 0.0 0.0 0.00 0.18 0.18 96 1014.8
20260903020304 72 73 0.0 0.0 0.00 0.18 0.18 96 1014.9
20260903020256 72 73 0.0 0.0 0.00 0.18 0.18 96 1014.7
20260903015240 72 73 0.0 0.0 0.00 0.18 0.18 96 1014.7
20260903014740 72 73 0.0 0.0 0.00 0.18 0.18 96 1014.6
20260903014240 73 73 0.0 0.0 0.00 0.18 0.18 96 1014.6
20260903013741 73 73 0.0 0.0 0.00 0.18 0.18 96 1014.8
20260903013519 73 73 0.0 0.0 0.00 0.18 0.18 96 1015.0
20260903012740 73 73 0.0 0.0 0.00 0.18 0.18 96 1015.0
20260903012243 73 73 0.0 0.0 0.00 0.18 0.18 96 1015.0
20260903012013 73 73 0.0 0.0 0.00 0.18 0.18 95 1015.2
20260903011231 73 73 0.0 0.0 0.00 0.18 0.18 96 1015.2
20260903010731 73 73 0.0 0.0 0.00 0.18 0.18 95 1015.4
20260903010232 73 73 0.0 0.0 0.00 0.18 0.18 96 1015.3
20260903005731 73 73 0.0 0.0 0.00 0.18 0.18 95 1015.2
20260903005513 73 73 0.0 0.0 0.00 0.18 0.18 95 1015.2
20260903004733 73 73 0.0 0.0 0.00 0.18 0.18 95 1015.3
20260903004230 73 73 0.0 1.0 0.00 0.18 0.18 95 1015.3
20260903003751 74 73 0.0 0.0 0.00 0.18 0.18 95 1015.1
20260903003744 73 73 0.0 1.0 0.00 0.18 0.18 95 1015.2
20260903002731 74 73 0.0 0.0 0.00 0.18 0.18 95 1015.0
20260903002232 74 73 0.0 0.0 0.00 0.18 0.18 95 1015.1
20260903001732 74 73 0.0 0.0 0.00 0.18 0.18 95 1015.1
20260903001231 74 73 0.0 0.0 0.00 0.18 0.18 95 1015.2
20260903001013 74 73 0.0 0.0 0.00 0.18 0.18 95 1015.3
20260903000233 74 73 0.0 0.0 0.00 0.18 0.18 95 1015.5
20260902235731 74 73 0.0 0.0 0.00 0.18 0.18 95 1015.5
20260902235232 74 73 0.0 0.0 0.00 0.18 0.18 95 1015.4
20260902234733 74 73 0.0 1.0 0.00 0.18 0.18 95 1015.3
20260902234230 74 73 0.0 1.0 0.00 0.18 0.18 94 1015.2
20260902233731 75 73 0.0 0.0 0.00 0.18 0.18 94 1015.2
20260902233230 75 73 0.0 0.0 0.00 0.18 0.18 94 1015.3
20260902232732 75 73 0.0 0.0 0.00 0.18 0.18 94 1015.1
20260902232231 75 73 0.0 0.0 0.00 0.18 0.18 94 1015.1
20260902231731 75 73 0.0 0.0 0.00 0.18 0.18 94 1015.3
20260902231232 75 73 0.0 0.0 0.00 0.18 0.18 94 1015.5
20260902230730 75 73 0.0 0.0 0.00 0.18 0.18 93 1015.6
20260902230232 75 73 0.0 0.0 0.00 0.18 0.18 93 1015.6
20260902230011 75 73 0.0 0.0 0.00 0.18 0.18 93 1015.5
20260902225207 75 73 0.0 1.0 0.00 0.18 0.18 93 1015.5
20260902224726 76 73 0.0 0.0 0.00 0.18 0.18 93 1015.5
20260902224719 75 73 0.0 1.0 0.00 0.18 0.18 93 1015.5
20260902223703 76 73 0.0 0.0 0.00 0.18 0.18 92 1015.6
20260902223203 76 73 0.0 0.0 0.00 0.18 0.18 93 1015.6
20260902222704 76 73 0.0 0.0 0.00 0.18 0.18 93 1015.6
20260902222203 76 73 0.0 0.0 0.00 0.18 0.18 93 1015.6